Regional Weather Roundup
Issued by NWS

Home | Current Version | Previous Version | Text Only | Print | Product List | Glossary On
Versions: 1 2 3 4 5 6 7 8 9 10 11 12 13 14 15 16 17 18 19 20 21 22 23 24 25 26 27 28 29 30 31 32 33 34 35 36 37 38 39 40 41 42 43 44 45 46 47 48 49 50
495
ASUS43 KOAX 271210
RWRNE

WEATHER ROUNDUP FOR NEBRASKA
NATIONAL WEATHER SERVICE OMAHA NE
700 AM CDT SUN MAY 27 2018

NOTES: SATELLITE DATA IS BEING USED TO AUGMENT CLOUD COVER ABOVE
       12000 FEET.
       "FAIR" INDICATES FEW OR NO CLOUDS BELOW 12,000 FEET WITH NO
       SIGNIFICANT WEATHER AND/OR OBSTRUCTIONS TO VISIBILITY.


NEZ001>004-019>022-054>056-271300-
NEBRASKA PANHANDLE

CITY           SKY/WX    TMP DP  RH WIND       PRES   REMARKS
SCOTTSBLUFF    CLOUDY    66  55  67 E5        29.80R
6HR MIN TEMP:  66; 6HR MAX TEMP:  76;

ALLIANCE       CLOUDY    65  54  67 S12       29.80R
6HR MIN TEMP:  63; 6HR MAX TEMP:  71;

CHADRON        CLOUDY    66  52  60 SW9       29.78R
6HR MIN TEMP:  65; 6HR MAX TEMP:  80;

GORDON         FAIR      71  53  53 S17       29.78S
6HR MIN TEMP:  71; 6HR MAX TEMP:  77;

KIMBALL        CLOUDY    62  53  73 SW6       29.87R
SIDNEY         CLOUDY    64  55  72 S10       29.84R
6HR MIN TEMP:  64; 6HR MAX TEMP:  71;

$$

NEZ057>060-069>072-079>082-271300-
SOUTHWEST NEBRASKA

CITY           SKY/WX    TMP DP  RH WIND       PRES   REMARKS
NORTH PLATTE   CLOUDY    70  59  68 S9        29.84S
6HR MIN TEMP:  69; 6HR MAX TEMP:  76;

IMPERIAL       CLOUDY    70  59  68 S15G26    29.84R
6HR MIN TEMP:  69; 6HR MAX TEMP:  73;

LEXINGTON      CLOUDY    69  60  72 S9        29.86R
MCCOOK         CLOUDY    69  62  78 S10       29.86R
6HR MIN TEMP:  66; 6HR MAX TEMP:  75;

OGALLALA       CLOUDY    70  56  62 S14G20    29.83R
$$

NEZ005>010-023>029-035>040-094-271300-
NORTH CENTRAL NEBRASKA

CITY           SKY/WX    TMP DP  RH WIND       PRES   REMARKS
VALENTINE      CLOUDY    74  54  49 S20G29    29.77S
6HR MIN TEMP:  71; 6HR MAX TEMP:  78;

BROKEN BOW     CLOUDY    69  57  65 S7        29.85S
6HR MIN TEMP:  68; 6HR MAX TEMP:  74;

O`NEILL        PTCLDY    69  58  68 S6        29.81S
ORD            MOCLDY    67  59  75 S7        29.81F
6HR MIN TEMP:  64; 6HR MAX TEMP:  73;

THEDFORD       CLOUDY    70  56  62 S14       29.84S
$$

NEZ041-046>049-061>064-073>077-083>087-271300-
SOUTH CENTRAL NEBRASKA

CITY           SKY/WX    TMP DP  RH WIND       PRES   REMARKS
GRAND ISLAND   MOCLDY    73  60  63 SW12      29.85R
6HR MIN TEMP:  72; 6HR MAX TEMP:  82;

AURORA         MOCLDY    71  60  70 SW8       29.86R
HASTINGS       PTCLDY    69  60  73 S6        29.87R
6HR MIN TEMP:  69; 6HR MAX TEMP:  77;

HEBRON         CLOUDY    72  64  74 CALM      29.86S
HOLDREGE       CLOUDY    68  60  74 S8        29.87R
KEARNEY        MOCLDY    65  59  81 S6        29.87R
YORK           CLOUDY    72  63  73 SW9       29.85S
$$

NEZ011>018-030>034-042>045-271300-
NORTHEAST NEBRASKA

CITY           SKY/WX    TMP DP  RH WIND       PRES   REMARKS
NORFOLK        CLEAR     66  60  81 CALM      29.82R
6HR MIN TEMP:  62; 6HR MAX TEMP:  73;

ALBION         MOCLDY    71  59  66 CALM      29.84S
BLAIR          SUNNY     76  60  58 SW5       29.83R
COLUMBUS       CLOUDY    73  60  63 SW5       29.84R
FREMONT        CLEAR     74  63  66 SW3       29.84R
TEKAMAH        SUNNY     69  62  78 SE8       29.81R
6HR MIN TEMP:  65; 6HR MAX TEMP:  73;

WAYNE          CLEAR     64  63  97 S5        29.81S
$$

NEZ050>053-065>068-078-088>093-271300-
SOUTHEAST NEBRASKA

CITY           SKY/WX    TMP DP  RH WIND       PRES   REMARKS
LINCOLN        CLEAR     68  61  78 S3        29.84R
6HR MIN TEMP:  66; 6HR MAX TEMP:  79;

OMAHA EPPLEY   MOSUNNY   74  62  66 S3        29.82R
6HR MIN TEMP:  70; 6HR MAX TEMP:  75;

BEATRICE       CLEAR     72  64  78 S3        29.86R
FALLS CITY     SUNNY     70  64  81 E3        29.84R
6HR MIN TEMP:  68; 6HR MAX TEMP:  80;

NEBRASKA CITY  CLEAR     74  64  71 SW8       29.84R
PLATTSMOUTH    SUNNY     74  63  68 S3        29.84R
$$

NEZ044-045-051>053-067-271300-
OMAHA AREA

CITY           SKY/WX    TMP DP  RH WIND       PRES   REMARKS
OMAHA EPPLEY   MOSUNNY   74  62  66 S3        29.82R
6HR MIN TEMP:  70; 6HR MAX TEMP:  75;

BLAIR          SUNNY     76  60  58 SW5       29.83R
FREMONT        CLEAR     74  63  66 SW3       29.84R
MILLARD        CLEAR     69  64  83 CALM      29.82R
OFFUTT AFB     SUNNY     68  64  87 CALM      29.82R
PLATTSMOUTH    SUNNY     74  63  68 S3        29.84R
WAHOO          FAIR      71  60  68 CALM      29.83S
$$




USA.gov is the U.S. government's official web portal to all federal, state and local government web resources and services.